Flag for U.S.A. Weather past 2 weeks in Louisville, Kentucky, U.S.A.

68 °F

Passing clouds.

Feels Like: 68 °F
Forecast: 62 / 75 °F
Wind: 8 mph from Southwest

Location: Standiford Field

Current Time: Oct 9, 2015 at 4:53:14 AM

Latest Report: Oct 9, 2015 at 3:56 AM

Visibility: 8 mi

Pressure: 29.98 "Hg

Humidity: 78%

Dew point: 61 °F

Location of LouisvilleLocation

Historic Weather in Louisville — Graph


Louisville temperature yesterday

Maximum temperature yesterday: 85 °F (at 3:56 PM)
Minimum temperature yesterday: 63 °F (at 6:56 AM)
Average temperature yesterday: 72 °F

Past Weeks' High & Low Weather Summary

High86 °F (Sep 24, 4:56 PM)94% (Sep 30, 4:56 AM)30.19 "Hg (Sep 30, 4:56 AM)
Low50 °F (Oct 2, 9:56 PM)35% (Sep 24, 4:56 PM)29.82 "Hg (Sep 29, 5:56 PM)
Average68 °F70%30.03 "Hg
* Reported Sep 24 2:56 AM — Oct 9 2:56 AM, Louisville, Weather by CustomWeather, © 2015

Note: Actual official high and low records may vary slightly from our data, if they occured in-between our weather recording intervals... More about our weather records


Louisville weather history for previous 24 hours

Time TempWeatherWind HumidityBarometerVisibility
2:56 AM
Fri, Oct 9
68 °FPassing clouds.6 mph78%29.98 "Hg8 mi
1:56 AM70 °FPassing clouds.6 mph73%29.98 "Hg9 mi
12:56 AM71 °FPassing clouds.6 mph71%29.98 "Hg9 mi
11:56 PM
Thu, Oct 8
70 °FPassing clouds.5 mph73%29.98 "Hg9 mi
10:56 PM71 °FPassing clouds.5 mph71%29.99 "Hg10 mi
9:56 PM72 °FPassing clouds.5 mph68%29.99 "Hg10 mi
8:56 PM74 °FPassing clouds.5 mph62%29.98 "Hg10 mi
7:56 PM78 °FPassing clouds.5 mph52%29.98 "Hg10 mi
6:56 PM79 °FPassing clouds.6 mph48%29.97 "Hg10 mi
5:56 PM82 °FPartly sunny.8 mph44%29.98 "Hg10 mi
4:56 PM82 °FPartly sunny.6 mph43%29.98 "Hg10 mi
3:56 PM85 °FBroken clouds.6 mph39%29.99 "Hg10 mi
2:56 PM82 °FPartly sunny.9 mph40%30.01 "Hg10 mi
1:56 PM80 °FPartly sunny.9 mph45%30.03 "Hg10 mi
12:56 PM81 °FPartly sunny.9 mph44%30.06 "Hg10 mi
11:56 AM77 °FCloudy.No wind56%30.08 "Hg9 mi
10:56 AM73 °FCloudy.3 mph64%30.08 "Hg8 mi
9:56 AM68 °FBroken clouds.No wind76%30.09 "Hg7 mi
8:56 AM64 °FCloudy.3 mph84%30.08 "Hg7 mi
7:56 AM63 °FMostly cloudy.5 mph87%30.07 "Hg7 mi
6:56 AM63 °FMostly cloudy.3 mph87%30.06 "Hg8 mi
5:56 AM64 °FHigh level clouds.No wind84%30.06 "Hg8 mi
4:56 AM65 °FOvercast.3 mph85%30.06 "Hg8 mi
Weather by CustomWeather, © 2015

See weather overviewHow to use our weather pages